Weather in Primalkinskoe

Russia / The Kabardino-Balkar Republic     43°44′50″N   43°59′59″E
temp.,
°C
wind,
m/s
gust,
m/s
humid.,
%
clouds,
%
prec.,
mm/h
press.,
hPa
HPBL,
m
19 september, sun
sun1900:00+14e488865 0.0 1016212
03:00+13e36969 0.0 1016164
06:00+12ene249754 0.0 101697
09:00+18e347294 0.0 1015584
12:00+23e445440 0.0 10131134
15:00+26e454323 0.0 10121593
18:00+22ene495499 0.0 1012189
21:00+20e5955100 0.0 1013342
20 september, mon
mon2000:00+16ene367091 0.0 1013123
03:00+14e11815 0.0 101413
06:00+14ese118445 0.0 101410
09:00+20ne226040 0.0 1014451
12:00+25ene33435 0.0 10121030
15:00+27ene443319 0.0 10121737
18:00+22ne3446100 0.1 101347
21:00+19nw466585 0.1 1016189
21 september, tue
tue2100:00+16nnw22863 0.0 101636
03:00+15wnw11880 0.0 101611
06:00+14wsw11905 0.0 101611
09:00+21s126276 0.0 1015410
12:00+26e334499 0.0 10131184
15:00+28e343679 0.0 10111724
18:00+22ene3351100 0.4 101139
21:00+19wsw227076 1.6 101331
22 september, wed
wed2200:00+16nw5983100 0.0 1013198
03:00+15nw4989100 0.3 1014327
06:00+15nw3693100 0.1 1015318
09:00+18nnw3481100 0.4 1015672
12:00+17nnw3386100 0.9 1015357
15:00+15nnw4586100 1.2 1015341
18:00+15nnw3583100 0.2 1016342
21:00+14nnw2484100 0.3 1016305
23 september, thu
thu2300:00+14nnw1384100 0.2 1015231
03:00+14nnw1185100 0.2 1014109
06:00+14nnw1285100 0.0 1014162
09:00+14n0087100 0.2 1014197
12:00+15e1185100 0.1 1012312
15:00+16se1282100 0.1 1010326
18:00+15sw3389100 0.1 1010125
21:00+15s1190100 0.4 100735